Weather History for KVPZ - August, 2013

Change the Weather History Date:

Saturday, August 17, 2013

  Actual Average Record
Temperature  
Mean Temperature 67 °F 71 °F  
Max Temperature 79 °F 80 °F 86 °F (1998)
Min Temperature 54 °F 61 °F 54 °F (2012)
Degree Days  
Heating Degree Days 0 0  
Month to date heating degree days 12 0  
Since 1 June heating degree days 65 45  
Since 1 July heating degree days 28 4  
Cooling Degree Days 2 6  
Month to date cooling degree days 72 112  
Year to date cooling degree days 547 563  
Since 1 June cooling degree days 446 516  
Growing Degree Days 16 (Base 50)    
Moisture  
Dew Point 56 °F    
Average Humidity 71    
Maximum Humidity 93    
Minimum Humidity 42    
Precipitation  
Precipitation 0.00 in 0.15 in 1.06 in (2000)
Month to date precipitation 3.16 2.31  
Year to date precipitation 24.79 23.54  
Sea Level Pressure  
Sea Level Pressure 30.21 in    
Wind  
Wind Speed 4 mph (ENE)    
Max Wind Speed 13 mph    
Max Gust Speed 16 mph    
Visibility 10 miles    
Events      
T = Trace of Precipitation, MM = Missing Value Source: NWS Daily Summary

Daily Weather History Graph

Daily Weather History Graph

Search for Another Location

Airport or City:

Trip Planner

Search our weather history database for the weather conditions in past years. The results will help you decide how hot, cold, wet, or windy it might be!

Date:

Astronomy

Aug. 17, 2013 Rise Set
Actual Time 5:59 AM CDT 7:44 PM CDT
Civil Twilight 5:29 AM CDT 8:13 PM CDT
Nautical Twilight 4:53 AM CDT 8:49 PM CDT
Astronomical Twilight 4:15 AM CDT 9:27 PM CDT
Moon 5:00 PM CDT (8/17) 2:00 AM CDT (8/17)
Length of Visible Light 14h 43m
Length of Day
13h 44m
Waxing Gibbous, 84% of the Moon is Illuminated
Aug 17
Waxing Gibbous
Aug 20
Full
Aug 28
Last Quarter
Sep 5
New
Sep 12
First Quarter

Hourly Weather History & Observations

Time (CDT) Temp. Dew Point Humidity Pressure Visibility Wind Dir Wind Speed Gust Speed Precip Events Conditions
12:53 AM 57.0 °F 54.0 °F 89% 30.21 in 10.0 mi NE 3.5 mph - N/A   Clear
1:53 AM 57.9 °F 54.0 °F 87% 30.21 in 10.0 mi Calm Calm - N/A   Clear
2:53 AM 57.0 °F 54.0 °F 89% 30.21 in 10.0 mi Calm Calm - N/A   Clear
3:53 AM 55.0 °F 53.1 °F 93% 30.21 in 8.0 mi Calm Calm - N/A   Clear
4:53 AM 54.0 °F 52.0 °F 93% 30.21 in 10.0 mi NE 4.6 mph - N/A   Clear
5:53 AM 54.0 °F 52.0 °F 93% 30.23 in 10.0 mi NE 4.6 mph - N/A   Clear
6:53 AM 57.0 °F 54.0 °F 89% 30.24 in 10.0 mi NE 3.5 mph - N/A   Clear
7:53 AM 61.0 °F 57.0 °F 87% 30.25 in 10.0 mi ENE 4.6 mph - N/A   Clear
8:53 AM 66.9 °F 59.0 °F 76% 30.25 in 10.0 mi East 4.6 mph - N/A   Clear
9:53 AM 72.0 °F 57.9 °F 61% 30.25 in 10.0 mi ENE 5.8 mph - N/A   Clear
10:53 AM 75.0 °F 57.9 °F 55% 30.25 in 10.0 mi East 8.1 mph - N/A   Clear
11:53 AM 77.0 °F 55.0 °F 47% 30.24 in 10.0 mi East 10.4 mph - N/A   Partly Cloudy
12:53 PM 78.1 °F 53.1 °F 42% 30.23 in 10.0 mi East 8.1 mph - N/A   Clear
1:53 PM 77.0 °F 54.0 °F 45% 30.21 in 10.0 mi East 6.9 mph - N/A   Clear
2:53 PM 79.0 °F 55.0 °F 44% 30.20 in 10.0 mi East 11.5 mph - N/A   Scattered Clouds
3:53 PM 77.0 °F 55.0 °F 47% 30.19 in 10.0 mi East 5.8 mph - N/A   Clear
4:53 PM 75.0 °F 55.9 °F 51% 30.19 in 10.0 mi ESE 4.6 mph - N/A   Clear
5:53 PM 75.0 °F 57.0 °F 53% 30.19 in 10.0 mi East 4.6 mph - N/A   Clear
6:53 PM 73.0 °F 57.9 °F 59% 30.19 in 10.0 mi Calm Calm - N/A   Clear
7:53 PM 68.0 °F 57.9 °F 70% 30.19 in 10.0 mi Calm Calm - N/A   Clear
8:53 PM 66.0 °F 57.9 °F 75% 30.19 in 10.0 mi North 3.5 mph - N/A   Clear
9:53 PM 64.0 °F 57.9 °F 80% 30.19 in 10.0 mi Calm Calm - N/A   Clear
10:53 PM 61.0 °F 57.9 °F 90% 30.19 in 10.0 mi Calm Calm - N/A   Clear
11:53 PM 60.1 °F 57.9 °F 93% 30.18 in 5.0 mi Calm Calm - N/A   Clear